This demonstration page uses our WeatherBlox Daily Observations layout. Learn more.

Left ArrowRight Arrow

Hourly Observations for April 21, 2020

Temp ( °F °C ) Dew Point ( °F °C ) Humidity (%) Winds ( mph kmh ) Pressure ( in mb ) Visibility ( mi km ) Precip ( " mm )
12:15 am 00:15 Clear 44 6.5 31 -0.7 60 60 WNW 3 6 30 1016 10 16.0934 0 0
12:35 am 00:35 Clear 43 6.2 30 -1 60 60 NW 5 7 30.01 1016 10 16.0934 0 0
12:55 am 00:55 Clear 40 4.6 30 -1.2 66 66 NW 5 7 30.02 1017 10 16.0934 0 0
1:15 am 01:15 Clear 42 5.3 29 -1.4 62 62 NW 5 7 30.03 1017 10 16.0934 0 0
1:35 am 01:35 Clear 43 5.9 30 -1.3 60 60 WNW 3 6 30.02 1017 10 16.0934 0 0
1:55 am 01:55 Clear 42 5.7 29 -1.5 60 60 WNW 5 7 30.03 1017 10 16.0934 0 0
2:15 am 02:15 Clear 41 4.8 29 -1.5 64 64 WNW 3 6 30.04 1017 10 16.0934 0 0
2:35 am 02:35 Clear 41 4.9 30 -1.2 65 65 W 3 6 30.03 1017 10 16.0934 0 0
2:55 am 02:55 Clear 40 4.6 30 -1.1 67 67 W 3 6 30.03 1017 10 16.0934 0 0
3:15 am 03:15 Clear 39 4 30 -1.3 69 69 WNW 5 7 30.04 1017 10 16.0934 0 0
3:35 am 03:35 Clear 38 3.5 29 -1.6 70 70 WNW 5 7 30.04 1017 10 16.0934 0 0
3:55 am 03:55 Clear 38 3.4 29 -1.4 71 71 WNW 3 6 30.05 1018 10 16.0934 0 0
4:15 am 04:15 Clear 39 3.7 30 -0.9 72 72 W 5 7 30.06 1018 10 16.0934 0 0
4:35 am 04:35 Clear 36 2.2 29 -1.5 77 77 Calm 30.07 1018 10 16.0934 0 0
4:55 am 04:55 Clear 36 2 29 -1.8 76 76 W 3 6 30.09 1019 10 16.0934 0 0
5:15 am 05:15 Clear 36 2.2 29 -1.9 75 75 Calm 30.08 1019 10 16.0934 0 0
5:35 am 05:35 Clear 35 1.9 29 -1.7 77 77 NW 3 6 30.09 1019 10 16.0934 0 0
5:55 am 05:55 Clear 37 2.5 29 -1.9 73 73 Calm 30.09 1019 10 16.0934 0 0
6:15 am 06:15 Clear 34 0.9 28 -2.3 79 79 W 3 6 30.11 1020 10 16.0934 0 0
6:35 am 06:35 Clear 35 1.9 29 -1.6 78 78 W 5 7 30.11 1020 10 16.0934 0 0
6:55 am 06:55 Sunny 35 1.6 29 -1.6 80 80 W 3 6 30.12 1020 10 16.0934 0 0
7:15 am 07:15 Sunny 36 2.2 29 -1.8 75 75 W 5 7 30.11 1020 10 16.0934 0 0
7:35 am 07:35 Sunny 36 2.3 31 -0.8 80 80 WNW 3 6 30.11 1020 10 16.0934 0 0
7:55 am 07:55 Partly Cloudy 42 5.5 33 0.4 70 70 Calm 30.09 1019 10 16.0934 0 0
8:15 am 08:15 Mostly Cloudy 45 7 33 0.5 64 64 Calm 30.08 1019 10 16.0934 0 0
8:35 am 08:35 Partly Cloudy 46 7.5 35 1.5 66 66 Calm 30.08 1018 10 16.0934 0 0
8:55 am 08:55 Partly Cloudy 50 10.2 36 2.4 59 59 Calm 30.05 1018 10 16.0934 0 0
9:15 am 09:15 Mostly Cloudy 54 12.2 36 2.1 50 50 Calm 30.03 1017 10 16.0934 0 0
9:35 am 09:35 Partly Cloudy 57 14 34 1.2 42 42 Calm 30.02 1017 10 16.0934 0 0
9:55 am 09:55 Partly Cloudy 59 15 33 0.5 37 37 Calm 30.01 1016 10 16.0934 0 0
10:15 am 10:15 Partly Cloudy 60 15.6 33 0.5 36 36 Calm 30 1016 10 16.0934 0 0
10:35 am 10:35 Mostly Cloudy 61 16 33 0.4 35 35 Calm 30 1016 10 16.0934 0 0
10:55 am 10:55 Mostly Cloudy 64 17.5 33 0.5 32 32 SSE 3 6 29.98 1015 10 16.0934 0 0
11:15 am 11:15 Mostly Cloudy 64 17.8 32 -0.1 30 30 S 6 9 29.98 1015 10 16.0934 0 0
11:35 am 11:35 Mostly Cloudy 66 18.8 32 0 28 28 SSW 6 9 29.97 1015 10 16.0934 0 0
11:55 am 11:55 Mostly Cloudy 65 18.6 31 -0.3 28 28 S 6 9 29.97 1015 10 16.0934 0 0
12:15 pm 12:15 Mostly Cloudy 68 19.9 32 -0.1 26 26 SSW 12 19 29.96 1014 10 16.0934 0 0
12:35 pm 12:35 Sunny 68 20.2 31 -0.6 25 25 SW 13 20 29.95 1014 10 16.0934 0 0
12:55 pm 12:55 Sunny 69 20.7 31 -0.7 24 24 S 9 15 29.93 1014 10 16.0934 0 0
1:15 pm 13:15 Sunny 70 21 30 -0.9 23 23 S 10 17 29.92 1013 10 16.0934 0 0
1:35 pm 13:35 Sunny 71 21.4 32 -0.1 24 24 SW 12 19 29.91 1013 10 16.0934 0 0
1:55 pm 13:55 Sunny 72 22 32 0.1 23 23 SSW 6 9 29.89 1012 10 16.0934 0 0
2:15 pm 14:15 Sunny 72 22.2 32 0 23 23 S 5 7 29.88 1012 10 16.0934 0 0
2:35 pm 14:35 Sunny 73 22.7 32 -0.1 22 22 SSW 13 20 29.87 1011 10 16.0934 0 0
2:55 pm 14:55 Sunny 73 23 31 -0.3 21 21 S 8 13 29.85 1011 10 16.0934 0 0
3:15 pm 15:15 Sunny 74 23.3 32 0 21 21 SW 8 13 29.84 1011 10 16.0934 0 0
3:35 pm 15:35 Sunny 75 23.8 32 0.1 21 21 SSW 13 20 29.83 1010 10 16.0934 0 0
3:55 pm 15:55 Sunny 75 23.7 32 -0.1 21 21 S 9 15 29.82 1010 10 16.0934 0 0
4:15 pm 16:15 Sunny 75 24 33 0.4 21 21 SSW 16 26 29.8 1009 10 16.0934 0 0
4:35 pm 16:35 Sunny 76 24.2 31 -0.4 20 20 SSW 10 17 29.79 1009 10 16.0934 0 0
4:55 pm 16:55 Sunny 76 24.5 32 -0.1 20 20 SSW 15 24 29.78 1008 10 16.0934 0 0
5:15 pm 17:15 Partly Cloudy 75 24.1 32 -0.2 20 20 S 14 22 29.78 1009 10 16.0934 0 0
5:35 pm 17:35 Mostly Cloudy 74 23.6 32 -0.1 21 21 SSW 15 24 29.78 1008 10 16.0934 0 0
5:55 pm 17:55 Mostly Cloudy 76 24.2 32 0 20 20 SSW 13 20 29.76 1008 10 16.0934 0 0
6:15 pm 18:15 Mostly Cloudy 75 23.8 32 0.1 21 21 SSW 16 26 29.76 1008 10 16.0934 0 0
6:35 pm 18:35 Mostly Cloudy 74 23.5 33 0.3 22 22 S 13 20 29.76 1008 10 16.0934 0 0
6:55 pm 18:55 Mostly Cloudy 75 23.9 34 1.1 22 22 S 16 26 29.75 1007 10 16.0934 0 0
7:15 pm 19:15 Mostly Cloudy 74 23.4 34 1.2 23 23 S 13 20 29.75 1007 10 16.0934 0 0
7:35 pm 19:35 Partly Cloudy 73 22.6 34 1.1 24 24 S 10 17 29.76 1008 10 16.0934 0 0
7:55 pm 19:55 Mostly Cloudy 71 21.7 38 3.1 30 30 SW 15 24 29.76 1008 10 16.0934 0 0
8:15 pm 20:15 Mostly Cloudy 69 20.7 42 5.3 37 37 SW 10 17 29.77 1008 10 16.0934 0 0
8:35 pm 20:35 Partly Cloudy 67 19.2 42 5.6 41 41 SW 9 15 29.78 1009 10 16.0934 0 0
8:55 pm 20:55 Clear 65 18.1 42 5.5 44 44 SW 8 13 29.8 1009 10 16.0934 0 0
9:15 pm 21:15 Clear 62 16.8 42 5.5 47 47 SW 7 11 29.81 1010 10 16.0934 0 0
9:35 pm 21:35 Clear 60 15.4 42 5.5 52 52 SW 6 9 29.84 1010 10 16.0934 0 0
9:55 pm 21:55 Clear 59 15 41 5.2 52 52 SW 7 11 29.85 1011 10 16.0934 0 0
10:15 pm 22:15 Clear 58 14.4 42 5.3 55 55 SW 5 7 29.84 1011 10 16.0934 0 0
10:35 pm 22:35 Clear 59 14.9 42 5.6 54 54 SW 9 15 29.85 1011 10 16.0934 0 0
10:55 pm 22:55 Clear 57 13.9 42 5.5 57 57 SW 7 11 29.87 1011 10 16.0934 0 0
11:15 pm 23:15 Clear 56 13.3 42 5.3 59 59 SW 8 13 29.86 1011 10 16.0934 0 0
11:35 pm 23:35 Clear 56 13.5 42 5.4 58 58 SW 7 11 29.87 1012 10 16.0934 0 0
11:55 pm 23:55 Clear 55 12.5 42 5.3 62 62 SSW 7 11 29.88 1012 10 16.0934 0 0

Powered by AerisWeather